Wind_Speed
32 28 27 29 24 19 22 20 21 23 20 25 30 36 38 41 31 33 43 50 45 49 54 61 51 47 42 39 40 31 28 28
31 28 29 30 23 20 20 19 15 16 12 20 30 31 33 40 39 34 40 53 55 51 48 48 49 48 46 44 38 28 31 33
30 29 29 28 24 18 17 16 14 14 12 11 15 34 35 36 42 36 38 46 59 52 50 50 52 50 43 41 36 39 35 40
31 31 31 27 25 18 14 12 12 13 12 12 14 15 39 35 38 34 41 40 50 54 57 56 56 53 51 51 52 45 50 41
29 30 29 25 24 16 13 10 12 11 11 10 13 13 17 41 39 40 40 42 49 50 57 62 62 58 56 55 56 56 42 45
29 31 27 24 20 17 16 14 12 10 10 9 9 12 10 20 40 43 46 46 48 53 55 53 53 56 59 61 58 55 58 51
33 31 31 23 21 18 17 17 14 11 11 10 9 9 10 11 22 37 47 51 47 49 51 47 49 50 51 50 49 51 51 49
32 36 36 32 30 25 21 21 18 13 10 9 10 9 7 7 9 22 32 45 51 47 52 57 54 54 52 47 46 45 45 48
37 34 37 34 30 30 27 23 22 18 13 7 5 8 9 7 5 6 15 25 42 53 51 49 51 56 53 52 51 49 49 49
38 32 34 37 34 31 29 27 24 22 21 13 8 8 9 10 11 8 6 8 17 28 47 49 50 53 52 51 53 53 55 53
35 33 32 34 34 32 32 31 28 25 25 20 14 11 12 11 10 9 10 10 9 9 16 25 34 47 55 55 56 57 60 57
46 39 32 31 33 34 34 34 31 28 23 23 19 18 15 14 13 11 8 12 14 14 15 15 17 28 33 38 48 60 62 62
44 42 38 35 33 32 33 34 32 32 31 26 26 25 23 20 19 18 16 16 17 19 14 19 21 21 19 22 33 38 38 42
47 46 44 40 37 34 34 34 34 37 37 35 31 30 32 29 26 25 24 23 21 21 23 22 21 22 25 28 29 30 29 29
45 45 46 43 39 36 37 35 36 36 35 36 36 33 35 33 29 30 31 31 29 28 29 29 28 30 30 27 26 27 29 34
36 36 36 37 39 39 40 41 41 40 40 41 36 35 36 35 34 31 32 34 35 35 34 35 35 37 36 37 34 34 35 34
41 39 40 39 41 43 45 45 44 44 44 42 41 38 36 36 37 39 42 40 40 42 41 38 39 42 43 45 46 44 42 42
50 48 46 41 43 44 44 44 46 45 45 46 47 46 46 46 46 46 47 48 48 47 49 48 48 48 47 48 51 53 52 50
54 55 52 51 49 48 47 49 52 51 50 50 51 51 52 52 51 51 51 54 55 54 55 55 56 57 54 55 57 57 57 59
Wind_Direction
217 224 231 239 253 269 282 290 300 310 279 237 234 229 232 227 218 222 229 212 218 224 226 230 242 253 259 266 270 281 287 291
216 222 231 239 249 264 284 291 291 308 302 250 234 234 228 228 222 211 216 211 218 230 236 238 249 253 254 266 266 280 292 291
215 222 229 236 244 260 282 294 284 293 316 302 267 231 231 227 230 222 213 221 224 230 229 235 241 245 250 256 266 269 281 290
212 220 227 234 245 251 281 296 288 281 296 316 313 260 233 224 224 220 219 215 222 237 234 236 236 244 255 256 263 275 278 282
209 219 222 231 232 240 257 288 309 319 288 296 328 317 242 225 223 219 217 223 225 231 237 239 244 248 255 258 263 268 264 276
213 225 214 221 226 233 250 275 296 318 326 304 318 335 285 235 227 226 228 227 229 232 236 242 242 246 253 255 258 262 264 269
212 222 217 210 234 241 248 267 283 298 326 325 323 359 356 267 243 237 235 235 235 238 240 238 246 248 254 255 256 257 261 265
211 219 224 221 236 244 251 260 270 277 302 320 321 330 358 2 295 262 258 244 240 245 244 243 244 249 253 252 253 256 256 260
218 215 223 227 230 240 245 254 261 264 275 285 312 315 312 313 323 318 271 260 252 246 247 246 248 252 252 256 259 261 263 257
220 219 226 231 230 230 241 247 253 256 264 272 291 302 326 307 293 304 329 319 269 255 247 249 250 250 254 257 260 264 265 262
220 224 228 235 233 233 238 242 248 260 255 261 272 289 311 321 318 303 298 307 309 314 279 270 269 262 258 257 257 261 264 259
223 226 229 231 236 238 240 240 246 251 257 256 258 270 279 293 294 300 310 320 313 295 290 293 284 269 270 268 263 261 260 261
227 229 229 233 236 241 244 241 246 246 250 251 251 252 258 267 277 281 283 301 305 312 308 291 284 285 282 279 272 268 268 267
230 234 237 238 240 247 249 250 250 251 254 255 262 265 260 257 262 268 274 273 279 282 290 295 293 288 283 284 281 277 277 279
227 233 238 235 238 245 249 250 249 250 254 256 260 257 256 259 262 263 264 268 273 277 277 279 283 280 285 298 294 292 285 279
225 229 233 233 235 240 242 242 246 250 251 257 265 266 259 256 261 261 267 270 272 275 276 282 281 272 272 278 285 287 286 290
230 232 228 232 236 235 244 249 255 257 261 261 261 258 254 253 254 260 269 273 276 271 272 274 273 273 273 271 281 283 285 287
230 233 235 235 241 244 247 251 255 260 262 264 265 264 260 260 261 265 269 272 272 272 272 275 277 276 276 276 276 278 279 282
231 231 235 239 238 239 245 250 250 254 257 260 260 260 260 262 262 264 266 269 272 273 274 272 275 277 279 276 275 274 276 280
Height
10595 10602 10606 10610 10613 10613 10613 10610 10607 10603 10600 10601 10604 10609 10614 10621 10626 10631 10638 10645 10648 10653 10656 10661 10664 10666 10669 10670 10675 10678 10676 10676
10591 10597 10601 10604 10607 10608 10607 10605 10603 10602 10597 10597 10600 10603 10608 10615 10622 10627 10632 10638 10643 10648 10649 10654 10656 10660 10663 10666 10668 10672 10669 10670
10585 10591 10595 10598 10601 10602 10602 10600 10599 10598 10595 10593 10594 10597 10601 10607 10614 10621 10627 10633 10637 10640 10645 10648 10650 10653 10657 10658 10661 10665 10668 10664
10579 10585 10589 10593 10595 10596 10597 10597 10596 10595 10593 10590 10588 10588 10592 10600 10607 10613 10619 10626 10628 10631 10637 10641 10642 10646 10648 10652 10654 10656 10661 10662
10573 10578 10583 10587 10589 10590 10592 10592 10591 10590 10589 10588 10586 10582 10583 10591 10599 10605 10611 10616 10621 10623 10627 10633 10635 10638 10641 10643 10647 10650 10652 10655
10567 10573 10579 10582 10583 10584 10586 10587 10587 10586 10584 10583 10583 10579 10578 10582 10589 10596 10601 10608 10612 10615 10618 10622 10626 10629 10632 10635 10639 10640 10643 10643
10558 10565 10571 10576 10578 10579 10581 10582 10582 10581 10580 10579 10578 10577 10575 10577 10581 10586 10592 10596 10601 10606 10610 10613 10616 10619 10622 10624 10627 10631 10632 10633
10551 10557 10562 10568 10571 10573 10575 10577 10578 10579 10578 10577 10575 10574 10574 10574 10575 10578 10580 10585 10590 10594 10599 10603 10606 10608 10611 10615 10617 10619 10620 10622
10542 10549 10554 10559 10564 10566 10569 10571 10573 10575 10575 10575 10574 10573 10572 10573 10574 10574 10574 10577 10578 10583 10589 10592 10595 10597 10599 10601 10604 10606 10608 10611
10536 10542 10547 10551 10555 10560 10564 10566 10567 10569 10570 10571 10571 10570 10569 10569 10569 10570 10571 10571 10573 10574 10579 10582 10584 10586 10587 10588 10590 10593 10597 10598
10530 10535 10539 10543 10548 10553 10557 10560 10562 10563 10565 10565 10566 10566 10565 10565 10564 10564 10565 10565 10565 10566 10567 10568 10569 10571 10575 10576 10579 10580 10583 10585
10519 10528 10535 10539 10542 10546 10550 10553 10556 10558 10559 10560 10561 10561 10560 10560 10560 10560 10560 10560 10560 10560 10561 10562 10562 10563 10564 10565 10566 10567 10569 10570
10517 10522 10528 10532 10536 10539 10542 10546 10548 10550 10551 10552 10553 10555 10555 10556 10556 10556 10557 10557 10557 10557 10557 10556 10556 10556 10556 10555 10556 10556 10556 10556
10508 10512 10519 10525 10531 10533 10535 10538 10540 10542 10542 10544 10547 10549 10549 10549 10549 10550 10551 10551 10551 10551 10551 10550 10550 10550 10549 10549 10548 10547 10547 10547
10499 10505 10509 10517 10521 10524 10527 10529 10530 10532 10534 10535 10539 10541 10541 10542 10543 10543 10542 10542 10542 10543 10544 10544 10544 10543 10541 10540 10539 10538 10537 10537
10492 10497 10501 10507 10510 10514 10516 10517 10520 10523 10525 10527 10530 10531 10533 10533 10533 10533 10534 10534 10534 10534 10534 10534 10534 10533 10532 10532 10532 10531 10529 10528
10483 10487 10492 10496 10500 10503 10505 10507 10510 10513 10515 10517 10520 10520 10522 10523 10524 10524 10524 10523 10523 10522 10522 10521 10520 10519 10520 10521 10521 10520 10519 10517
10473 10477 10480 10486 10489 10492 10495 10498 10499 10501 10503 10505 10506 10509 10510 10512 10512 10512 10512 10511 10511 10510 10509 10509 10507 10506 10506 10508 10507 10506 10504 10503
10461 10465 10469 10473 10478 10482 10486 10488 10490 10491 10492 10493 10494 10495 10496 10498 10498 10499 10498 10497 10496 10496 10494 10494 10494 10491 10494 10492 10490 10489 10488 10485